COSMOS 1275 DEB, 12668

Orbit data source: Space-Track

COSMOS 1275 DEB, 12668 is space debris in LEO originally from a launch on Thu, 04 Jun 1981 UTC launched from the Plesetsk Missile And Space Complex (PKMTR). Debris objects in space refer to the collection of defunct objects orbiting the Earth. Examples of debris include non-operational satellites, rocket bodies, and fragments generated from explosions, collisions, or faulty payload assembly.

Loading next visibility...
Identifier
12668, 1981-053Y
Orbit
LEO
Country
Flag of CISCIS
Related business
Manufacturer
Unknown
Mission
Spacecraft
Bus & Motor
Unknown
Mass
Unknown
Launch date (UTC)
1981-06-04 (45 years ago)
Launch vehicle
Unknown
Launch site
Plesetsk Missile And Space Complex (PKMTR)
Object type
Payload
Rocket body
Debris
Shape & HBR
Unknown shape, 0.1 m
Radar Cross Section
Medium (>0.1 m² and <1 m²)

Expand to show TLE details & history
Last TLE update: 10 hours ago

TLE from 10 hours ago
0 COSMOS 1275 DEB
1 12668U 81053Y   26255.07673904  .00000264  00000-0  15627-3 0  9992
2 12668  83.1069  17.8154 0051279 315.4693 170.3748 14.03582785298476
Epoch: 2026-09-12T01:50Z
TLE epoch observation values (Epoch: 2026-09-12T01:50:30.253Z)
Latitude
53.589°
Longitude
169.7144°
Altitude
926.925 km
Speed
7.375 km/s
True Right ascension
12h 33m 43s
True Declination
53° 25' 42"
Sunlit
Object was in daylight at epoch
Visualization orbit readout
Latitude
Unknown
Longitude
Unknown
Altitude
Unknown
Speed
Unknown
Apparent Right ascension
Unknown
Apparent Declination
Unknown
Sunlit
N/A
Visualization observer readout
Local Sidereal Time
03:50:02
Azimuth
Unknown
Elevation
Unknown
Doppler factor
Unknown
Orbital elements
Apogee altitude
915.729 km
Perigee altitude
841.307 km
Semi-major axis
7,256.655 km
Eccentricity
0.00513
Inclination
83.1069°
RAAN
17.8154°
Arg. of periapsis
315.4693°
True anomaly
170.47243°
Mean anomaly
170.3748°
Eccentric anomaly
170.42368°
Mean motion
3.51106 °/min
Orbital period
102.53 mins
BSTAR
0.00015627
Loading maneuver chart data...
Computing Atmospheric mass density...
Loading historical data...
Loading historical data...
Loading historical data...
Loading historical data...
Loading historical data...
Loading historical data...
Loading historical data...

Documentation

Showing up to 5 results
|